Satellite: CO-57
Catalog number: 27848
Epoch time:      09225.23741578
Element set:     592
Inclination:      098.7168 deg
RA of node:       232.6613 deg
Eccentricity:    0.0009752
Arg of perigee:   349.4055 deg
Mean anomaly:     010.6910 deg
Mean motion:   14.20451162 rev/day
Decay rate:        1.4e-07 rev/day^2
Epoch rev:           31732
Checksum:              302

Satellite: AO-51
Catalog number: 28375
Epoch time:      09224.56922180
Element set:     459
Inclination:      098.0528 deg
RA of node:       230.8871 deg
Eccentricity:    0.0084129
Arg of perigee:   314.8913 deg
Mean anomaly:     044.5467 deg
Mean motion:   14.40649057 rev/day
Decay rate:       -3.0e-08 rev/day^2
Epoch rev:           26907
Checksum:              323

Satellite: CO-56
Catalog number: 28941
Epoch time:      09225.67858791
Element set:     343
Inclination:      098.1379 deg
RA of node:       051.2793 deg
Eccentricity:    0.0066424
Arg of perigee:   272.5063 deg
Mean anomaly:     086.8608 deg
Mean motion:   15.91772240 rev/day
Decay rate:     5.8409e-04 rev/day^2
Epoch rev:           19637
Checksum:              359

Satellite: GENESAT1
Catalog number: 29655
Epoch time:      09225.31345856
Element set:     781
Inclination:      040.0223 deg
RA of node:       185.0784 deg
Eccentricity:    0.0003508
Arg of perigee:   234.0321 deg
Mean anomaly:     126.0171 deg
Mean motion:   15.66696514 rev/day
Decay rate:      8.673e-05 rev/day^2
Epoch rev:           15143
Checksum:              285

Satellite: CP3
Catalog number: 31129
Epoch time:      09225.08749649
Element set:     125
Inclination:      097.9853 deg
RA of node:       275.4290 deg
Eccentricity:    0.0103452
Arg of perigee:   108.6480 deg
Mean anomaly:     252.6006 deg
Mean motion:   14.52154529 rev/day
Decay rate:        6.3e-07 rev/day^2
Epoch rev:           12314
Checksum:              293

Satellite: CO-65
Catalog number: 32785
Epoch time:      09225.19658146
Element set:     443
Inclination:      097.9398 deg
RA of node:       288.6812 deg
Eccentricity:    0.0014419
Arg of perigee:   202.5580 deg
Mean anomaly:     157.4999 deg
Mean motion:   14.81506767 rev/day
Decay rate:       -1.0e-07 rev/day^2
Epoch rev:            6988
Checksum:              359

Satellite: KKS-1
Catalog number: 33493
Epoch time:      09225.80969824
Element set:     656
Inclination:      098.0609 deg
RA of node:       338.2843 deg
Eccentricity:    0.0021269
Arg of perigee:   057.6471 deg
Mean anomaly:     302.6797 deg
Mean motion:   14.80712561 rev/day
Decay rate:       2.01e-06 rev/day^2
Epoch rev:            2999
Checksum:              328

Satellite: SOHLA-1
Catalog number: 33496
Epoch time:      09225.78998660
Element set:     620
Inclination:      098.0415 deg
RA of node:       334.2108 deg
Eccentricity:    0.0007847
Arg of perigee:   097.2063 deg
Mean anomaly:     263.0036 deg
Mean motion:   14.69442738 rev/day
Decay rate:        1.8e-07 rev/day^2
Epoch rev:            2973
Checksum:              315

/EX
SB KEPS @ AMSAT  $ORB09225.W
Orbital Elements  09225.WEATHER

HR AMSAT ORBITAL ELEMENTS FOR WEATHER SATELLITES
FROM WA5QGD FORT WORTH,TX August 13, 2009
Send Subscribe/unsubscribe to KEPS at 
http://www.amsat.org/mailman/listinfo/keps
BID: ORB09225.W
TO ALL RADIO AMATEURS BT

Satellite: NOAA-10
Catalog number: 16969
Epoch time:      09225.49710377
Element set:     722
Inclination:      098.6893 deg
RA of node:       251.8274 deg
Eccentricity:    0.0012923
Arg of perigee:   033.1016 deg
Mean anomaly:     327.0981 deg
Mean motion:   14.27392125 rev/day
Decay rate:       -2.3e-07 rev/day^2
Epoch rev:           19168
Checksum:              310

Satellite: NOAA-11
Catalog number: 19531
Epoch time:      09225.27514875
Element set:     739
Inclination:      098.7828 deg
RA of node:       314.3468 deg
Eccentricity:    0.0011007
Arg of perigee:   309.0685 deg
Mean anomaly:     050.9487 deg
Mean motion:   14.14900813 rev/day
Decay rate:       -4.7e-07 rev/day^2
Epoch rev:            7759
Checksum:              323

Satellite: NOAA-12
Catalog number: 21263
Epoch time:      09225.51972061
Element set:     225
Inclination:      098.7734 deg
RA of node:       233.6086 deg
Eccentricity:    0.0012493
Arg of perigee:   345.3068 deg
Mean anomaly:     014.7747 deg
Mean motion:   14.25588883 rev/day
Decay rate:        2.1e-07 rev/day^2
Epoch rev:           94856
Checksum:              317

Satellite: MET-3/5
Catalog number: 21655
Epoch time:      09224.97414743
Element set:    0716
Inclination:      082.5569 deg
RA of node:       166.3852 deg
Eccentricity:    0.0014803
Arg of perigee:   042.4504 deg
Mean anomaly:     317.7759 deg
Mean motion:   13.17019873 rev/day
Decay rate:        5.1e-07 rev/day^2
Epoch rev:           86510
Checksum:              314

Satellite: MET-2/21
Catalog number: 22782
Epoch time:      09225.81344168
Element set:     536
Inclination:      082.5494 deg
RA of node:       136.3075 deg
Eccentricity:    0.0022004
Arg of perigee:   181.2479 deg
Mean anomaly:     178.8615 deg
Mean motion:   13.83639584 rev/day
Decay rate:        5.0e-07 rev/day^2
Epoch rev:           80557
Checksum:              317

